Regional Weather Roundup
Issued by NWS

Home | Current Version | Previous Version | Graphics & Text | Print | Product List | Glossary Off
Versions: 1 2 3 4 5 6 7 8 9 10 11 12 13 14 15 16 17 18 19 20 21 22 23 24 25 26 27 28 29 30 31 32 33 34 35 36 37 38 39 40 41 42 43 44 45 46 47 48 49 50

000
ASUS43 KMPX 230301
RWRMN
WEATHER ROUNDUP FOR MINNESOTA
NATIONAL WEATHER SERVICE TWIN CITIES/CHANHASSEN MN
900 PM CST SUN JAN 22 2017


NOTE: "FAIR" INDICATES FEW OR NO CLOUDS BELOW 12,000 FEET WITH NO
SIGNIFICANT WEATHER AND/OR OBSTRUCTIONS TO VISIBILITY. N/A MEANS
CURRENT SKY AND/OR WEATHER CONDITIONS ARE NOT AVAILABLE.

MNZ060>063-068>070-230400-
   Twin Cities Metro

CITY           SKY/WX    TMP DP  RH WIND       PRES   REMARKS
TWIN CITIES    CLOUDY    36  33  89 W6        29.78R
ST PAUL        CLOUDY    36  36 100 W6        29.79R
CRYSTAL        CLOUDY    35  32  88 W6        29.77R WCI  30
BLAINE         CLOUDY    37  37 100 W7        29.76S FOG
LAKEVILLE      CLOUDY    34  34 100 W8        29.78R FOG     WCI  27
EDEN PRAIRIE   CLOUDY    35  33  92 W7        29.77R FOG     WCI  29
SOUTH ST PAUL  CLOUDY    37  36  99 W5        29.77S FOG
LAKE ELMO      CLOUDY    36  36 100 W5        29.77S FOG
$$
MNZ001>005-007-008-013>017-022>024-027-028-230400-
   Northwest Minnesota

CITY           SKY/WX    TMP DP  RH WIND       PRES   REMARKS
BEMIDJI        CLOUDY    32  32 100 W7        29.74S FOG     WCI  26
HALLOCK        CLOUDY    34  32  93 CALM      29.75S FOG
ROSEAU         CLOUDY    34  28  80 SW5       29.73S HAZE    WCI  30
WARROAD        FOG       34  28  80 CALM      29.73S VSB 1/4
THIEF RVR FALL MIX PCPN  31  29  92 SW5       29.77S WCI  26
CROOKSTON      CLOUDY    32  30  93 SW5       29.78S WCI  27
FOSSTON        FOG       30  30 100 SW6       29.76F VSB 1/2 WCI  24
DETROIT LAKES  CLOUDY    32  32 100 W8        29.78S FOG     WCI  25
MOORHEAD       CLOUDY    32  30  93 NW6       29.80F WCI  26
PARK RAPIDS    CLOUDY    33  30  88 W8        29.74S WCI  26
MAHNOMEN       FOG       31  31 100 W9        29.76S VSB 1   WCI  23
$$
MNZ006-009>011-018-025>026-230400-
   North Central Minnesota

CITY           SKY/WX    TMP DP  RH WIND       PRES   REMARKS
BAUDETTE       FOG       33  33 100 CALM      29.72F VSB 1/2
FLAG ISLAND    CLOUDY    34  32  93 CALM      29.72F FOG
INTL FALLS     FOG       35  34  96 W3        29.72S VSB 1
WASKISH        FOG       34  34 100 CALM      29.73S VSB 1/2
BIG FORK       DRZL/FOG  36  34  93 CALM      29.72F VSB 1/2
LONGVILLE      CLOUDY    34  34 100 CALM      29.73S FOG
GRAND RAPIDS   FOG       35  33  92 CALM      29.74S VSB 1/4
CRANE LAKE     CLOUDY    30  30 100 CALM      29.74S FOG
ORR            LGT RAIN  32  30  93 CALM      29.70S
COOK           CLOUDY    32  32 100 CALM      29.72S
WALKER         CLOUDY    33  32  99 W6        29.74S FOG     WCI  27
$$
MNZ012-019>021-037-230400-
   Northeast Minnesota

CITY           SKY/WX    TMP DP  RH WIND       PRES   REMARKS
DULUTH         CLOUDY    35  34  96 NW3       29.70F
ELY            FOG       34  34 100 CALM      29.70F VSB 3/4
HIBBING        CLOUDY    33  33 100 CALM      29.71S
EVELETH        CLOUDY    34  33  96 CALM      29.72S
DULUTH HARBOR  CLOUDY    36  34  93 CALM      29.74S
TWO HARBORS    CLOUDY    39  34  81 CALM      29.69S
SILVER BAY     CLOUDY    36  36 100 CALM      29.69S FOG
GRAND MARAIS     N/A     36  33  89 N5        29.71S
G MARAIS ARPRT CLOUDY    30  28  93 CALM      29.68S
$$
MNZ029>031-032-039>041-046>048-054>057-064-230400-
   West Central Minnesota

CITY           SKY/WX    TMP DP  RH WIND       PRES   REMARKS
FERGUS FALLS   CLOUDY    30  30 100 NW12      29.83S FOG     WCI  21
WHEATON        CLOUDY    37  37 100 W9        29.83S
MORRIS         CLOUDY    34  32  93 NW9       29.79F FOG     WCI  26
ALEXANDRIA     CLOUDY    31  31 100 W8        29.78S FOG     WCI  23
ELBOW LAKE     CLOUDY    31  31 100 NW8       29.80S FOG     WCI  24
WADENA         CLOUDY    30  30 100 W5        29.76S FOG     WCI  25
GLENWOOD       CLOUDY    30  30 100 W8        29.79S FOG     WCI  23
APPLETON       CLOUDY    34  30  86 W10       29.82S WCI  26
ORTONVILLE     CLOUDY    34  28  80 CALM      29.82R
MADISON        CLOUDY    36  34  93 W9        29.82S
WILLMAR        CLOUDY    34  34 100 CALM      29.81S FOG
$$
MNZ033>034-036-042>043-049>051-058-059-230400-
   Central Minnesota

CITY           SKY/WX    TMP DP  RH WIND       PRES   REMARKS
ST CLOUD       CLOUDY    33  33 100 NW6       29.77R WCI  28
SAUK CENTRE    CLOUDY    32  31  98 W7        29.78S WCI  25
PAYNESVILLE    CLOUDY    32  32 100 W9        29.79S FOG     WCI  24
AITKIN         FOG       37  34  87 CALM      29.72F VSB 1
PINE RIVER     CLOUDY    34  34 100 W7        29.78S WCI  28
BRAINERD       CLOUDY    34  33  96 W8        29.75R FOG     WCI  27
STAPLES        CLOUDY    30  30 100 W5        29.76S FOG     WCI  25
LONG PRAIRIE   CLOUDY    32  32 100 SW6       29.77S FOG     WCI  26
LITTLE FALLS   CLOUDY    32  32 100 W6        29.77  FOG     WCI  26
LITCHFIELD     CLOUDY    34  34 100 W7        29.80R FOG     WCI  28
BUFFALO        CLOUDY    33  32  96 W6        29.79R FOG     WCI  27
MAPLE LAKE     CLOUDY    34  34  99 W6        29.78S FOG     WCI  29
HUTCHINSON     CLOUDY    33  32  97 W9        29.81R FOG     WCI  25
$$
MNZ037-044-045-052-053-230400-
   East Central Minnesota

CITY           SKY/WX    TMP DP  RH WIND       PRES   REMARKS
PRINCETON      CLOUDY    36  34  93 W5        29.77R FOG
MORA           CLOUDY    34  32  93 CALM      29.76S
CAMBRIDGE      CLOUDY    37  37 100 W6        29.74S FOG
RUSH CITY      CLOUDY    36  34  93 CALM      29.75S FOG
MOOSE LAKE     CLOUDY    36  34  93 CALM      29.72R
HINCKLEY       CLOUDY    36  36 100 W3        29.74S FOG
CLOQUET        FOG       36  34  93 CALM      29.71S VSB 1/2
MCGREGOR       CLOUDY    36  34  93 CALM      29.73S
$$
MNZ071>073-080-081-089-090-097-098-230400-
   Southwest Minnesota

CITY           SKY/WX    TMP DP  RH WIND       PRES   REMARKS
MONTEVIDEO     CLOUDY    34  34 100 NW5       29.83S WCI  30
GRANITE FALLS  CLOUDY    34  32  91 W10       29.83S WCI  26
CANBY          CLOUDY    33  31  91 NW8       29.83F WCI  26
MARSHALL       CLOUDY    32  29  88 NW9       29.83S WCI  24
REDWOOD FALLS  CLOUDY    33  29  85 W10       29.82R WCI  25
OLIVIA         CLOUDY    32  32 100 W9        29.81R FOG     WCI  24
PIPESTONE      CLOUDY    30  28  93 N16G23    29.81F WCI  19
WINDOM         CLOUDY    30  30 100 NW10      29.83R FOG     WCI  21
WORTHINGTON    CLOUDY    29  28  96 NW10      29.83S FOG     WCI  20
JACKSON        CLOUDY    30  30 100 NW12G17   29.83S FOG     WCI  21
TRACY          CLOUDY    32  30  93 NW9       29.83S WCI  24
SLAYTON        CLOUDY    29  28  96 NW14      29.82S WCI  19
$$
MNZ065>067-074>077-082>085-091>093-230400-
   South Central Minnesota

CITY           SKY/WX    TMP DP  RH WIND       PRES   REMARKS
MANKATO        MIX PCPN  32  31  96 W10       29.82S FOG     WCI  24
NEW ULM        CLOUDY    32  30  93 W6        29.82S FOG     WCI  26
ST JAMES       CLOUDY    30  30 100 W10       29.84S FOG     WCI  21
FAIRMONT       CLOUDY    31  30  96 NW14      29.84R FOG     WCI  21
GLENCOE        CLOUDY    33  33 100 W7        29.80R FOG     WCI  27
OWATONNA       CLOUDY    34  32  93 W12       29.79S FOG     WCI  25
WASECA         CLOUDY    32  32 100 W10       29.82R FOG     WCI  24
ALBERT LEA     FOG       34  34 100 NW6       29.79S VSB 3/4 WCI  29
$$
MNZ078>079-086>088-094>096-230400-
   Southeast Minnesota

CITY           SKY/WX    TMP DP  RH WIND       PRES   REMARKS
ROCHESTER      FOG       34  34 100 W9        29.77R VSB 1   WCI  27
RED WING       DRIZZLE   36  34  93 CALM      29.77R
STANTON        CLOUDY    35  34  94 W7        29.77R FOG     WCI  29
DODGE CENTER   FOG       34  34 100 CALM      29.77S VSB 1/2
WINONA         CLOUDY    36  36 100 CALM      29.77S FOG
AUSTIN         FOG       34  34 100 NW6       29.78R VSB 3/4 WCI  29
PRESTON        CLOUDY    33  32  96 NW10      29.76S FOG     WCI  25
$$
ABBREVIATIONS USED IN REMARKS
   TC - TEMPERATURES IN CELSIUS
  WCI - WIND CHILL INDEX
   HX - HEAT INDEX
  VSB - VISIBILITY
$$



USA.gov is the U.S. government's official web portal to all federal, state and local government web resources and services.